Location: Arisdonck
(51.1472°N, 3.6261°E)
Time: 01:16:36
(UTC+00:00)

Daily predictions for brighter satellites

Satellite Brightness Start Highest point End
(mag) Time Altitude Azimuth Time Altitude Azimuth Time Altitude Azimuth
USA 234 4.3 03:06:32 10° ENE 03:10:26 38° NE 03:10:26 38° NE
Cosmos 2322 Rocket 4.5 03:19:55 17° NNE 03:20:00 17° NNE 03:23:36 10° ENE
USA 59 Rocket 3.0 03:34:44 11° ESE 03:34:44 11° ESE 03:34:54 10° ESE
NOSS 3-1 (C) 4.3 03:34:05 54° NE 03:34:05 54° NE 03:42:07 10° ESE
Cosmos 1833 Rocket 4.4 03:46:20 25° NNE 03:46:20 25° NNE 03:48:35 10° NNE
ACS3 Solar Sail 4.0 03:39:52 10° N 03:40:27 13° N 03:40:27 13° N
SL-16 R/B 3.7 03:46:49 28° NNE 03:47:27 29° NE 03:52:21 10° ESE
Cosmos 2082 Rocket 3.7 03:49:31 24° SE 03:51:46 32° ESE 03:56:42 10° NE
COSMOS 2455 3.3 03:58:09 60° E 03:58:09 60° E 04:03:16 10° SE
ATLAS 3B R/B 4.0 03:59:03 32° N 03:59:50 32° N 04:06:47 10° ENE
NOSS 3-4 (A) 4.2 04:02:31 40° NNE 04:02:31 40° NNE 04:06:34 10° NE
NOSS 3-4 (C) 4.2 04:02:40 41° NNE 04:02:40 41° NNE 04:06:44 10° NE
Cosmos 1898 Rocket 4.4 04:02:27 47° E 04:02:27 47° E 04:06:44 10° SE
Cosmos 1980 Rocket 3.6 04:14:14 26° SSE 04:14:14 26° SSE 04:16:37 10° SSE
Cosmos 2369 3.9 04:16:15 69° SE 04:16:15 69° SE 04:21:15 10° SSE
Aureole 1 Rocket 4.2 04:20:44 61° NNW 04:22:10 87° WSW 04:29:41 10° SSE
COSMO-SKYMED 1 4.0 04:18:43 10° SE 04:22:26 33° ENE 04:22:50 33° NE
ADEOS Rocket 4.3 04:15:42 10° N 04:20:30 35° NNW 04:20:30 35° NNW
SKYMED 2 4.5 04:20:24 10° SE 04:24:02 47° E 04:24:02 47° E
Cosmos 2180 Rocket 4.4 04:23:51 54° N 04:25:28 89° W 04:31:48 10° S
Cosmos 1937 Rocket 3.8 04:25:55 56° NE 04:26:24 59° ENE 04:31:27 10° SE
Cosmos 909 Rocket 4.4 04:28:18 57° NW 04:28:18 57° NW 04:34:47 10° NE
Cosmos 372 Rocket 4.3 04:33:38 52° S 04:33:38 52° S 04:37:27 10° SSE
Celestis-02/Orion 38 4.4 04:30:06 10° NNE 04:35:12 86° ESE 04:35:17 85° SSE
Cosmos 2333 Rocket 3.2 04:33:56 28° N 04:36:34 44° NE 04:42:03 10° ESE
NOSS 3-1 (A) 4.2 04:37:46 37° NNW 04:40:39 62° NE 04:48:59 10° ESE
Cosmos 1606 Rocket 3.8 04:43:12 65° SE 04:43:12 65° SE 04:47:02 10° SSE
Cosmos 2360 Rocket 3.5 04:40:11 21° N 04:43:15 36° NE 04:48:24 10° ESE
Cosmos 2142 Rocket 4.4 04:47:06 56° WNW 04:47:54 61° W 04:54:00 10° S
Cosmos 540 Rocket 4.2 04:56:48 38° NNW 04:56:48 38° NNW 05:00:23 10° NNE
USA 234 3.6 04:49:19 10° ENE 04:55:40 54° N 04:57:47 39° NW
Helios 1A Rocket 3.4 04:53:16 10° SSE 04:55:47 44° SE 04:55:47 44° SE
SeaSat 1 3.9 04:55:52 10° NNE 04:58:20 23° N 04:58:20 23° N
Cosmos 2219 Rocket 3.6 04:58:08 15° NNW 05:02:03 32° NE 05:07:05 10° ESE
SL-4 R/B 2.4 05:03:15 46° E 05:03:15 46° E 05:05:36 10° E
ATLAS 5 CENTAUR R/B 3.2 05:05:56 16° NNE 05:05:56 16° NNE 05:06:58 10° NNE
Cosmos 2322 Rocket 2.9 05:01:43 21° NNW 05:05:25 52° NE 05:10:57 10° SE
Cosmos 1726 Rocket 3.3 05:08:07 53° NNW 05:09:05 79° W 05:13:19 10° S
Meteor 2-3 Rocket 3.9 05:05:55 10° S 05:11:38 74° E 05:17:19 10° NNE
CZ-4 R/B 3.6 05:10:03 10° NNE 05:14:44 90° W 05:19:21 10° SSW
Cosmos 489 Rocket 4.5 05:09:22 10° SSW 05:15:41 87° ESE 05:22:00 10° NNE
Nadezhda 4 Rocket 3.9 05:10:24 10° SSW 05:16:41 71° WNW 05:22:59 10° N
NOSS 2-1 (D) 4.3 05:17:47 32° SSW 05:17:47 32° SSW 05:21:15 10° SSE
Cosmos 2237 4.3 05:15:45 40° WNW 05:17:24 54° WSW 05:22:55 10° S
Cosmos 1428 Rocket 4.4 05:11:34 10° SSW 05:17:47 81° WNW 05:24:07 10° N
CZ-2C R/B 4.0 05:14:12 10° N 05:16:11 20° NNW 05:16:11 20° NNW
USA 59 Rocket 1.0 05:20:26 29° SW 05:20:26 29° SW 05:23:52 10° S
Cosmos 841 Rocket 3.4 05:18:24 10° SSW 05:23:38 80° WNW 05:28:56 10° NNE
COSMOS 2406 3.2 05:18:30 10° SSW 05:24:10 82° ESE 05:29:53 10° NNE
NOSS 2-1 (E) 4.0 05:25:12 35° SW 05:25:12 35° SW 05:29:09 10° SSE
NOSS 3-1 (C) 4.1 05:21:26 30° WNW 05:25:06 58° SW 05:33:37 10° SSE
Cosmos 1833 Rocket 4.0 05:28:01 22° NNW 05:28:01 22° NNW 05:32:04 10° NNE
Cosmos 1892 Rocket 3.4 05:26:12 10° SSW 05:30:34 84° WNW 05:35:00 10° N
Cosmos 2195 Rocket 4.4 05:24:51 10° SSW 05:31:07 80° W 05:37:30 10° N
SL-16 R/B 2.1 05:28:40 25° NW 05:32:03 70° WSW 05:37:40 10° SSE
Cosmos 2082 Rocket 2.3 05:31:29 18° SW 05:35:37 53° NW 05:41:08 10° NNE
IRS-1D 3.6 05:37:01 10° N 05:41:49 50° WNW 05:46:41 10° SW
COSMOS 2455 3.7 05:41:19 26° W 05:42:46 29° WSW 05:47:48 10° SSW
Cosmos 1898 Rocket 4.3 05:42:42 27° W 05:43:21 28° W 05:47:46 10° SSW
Meteor 2-20 4.4 05:38:46 10° NNW 05:44:48 61° W 05:50:45 10° S
NOSS 8 (A) 4.3 05:45:59 37° NNW 05:46:55 63° NE 05:49:59 10° SE
Orbus 7S? 2.4 05:47:32 46° NW 05:48:12 79° NNE 05:50:55 10° ESE
Cosmos 405 Rocket 3.8 05:46:10 10° SSE 05:49:13 38° E 05:52:18 10° NNE
NOSS 3-4 (A) 4.4 05:49:58 22° NW 05:52:29 29° NNW 05:58:04 10° NE
ATLAS 3B R/B 3.7 05:46:18 15° NW 05:52:33 46° NNE 05:59:53 10° E
NOSS 3-4 (C) 4.4 05:50:06 22° NW 05:52:38 29° NNW 05:58:13 10° NE
Cosmos-2242 2.9 05:49:30 12° NNW 05:53:26 60° W 05:57:34 10° S
Cosmos 1980 Rocket 4.2 05:56:02 10° WSW 05:56:02 10° WSW 05:56:07 10° WSW
Cosmos 2278 3.8 05:51:02 18° NW 05:55:06 55° WSW 06:00:35 10° S
Cosmos 1707 4.5 05:54:38 10° NNE 05:57:18 24° ENE 05:59:56 10° SE
COSMO-SKYMED 1 3.3 05:54:10 10° SSW 05:57:46 29° W 05:59:09 24° WNW
Cosmos 1437 Rocket 4.3 05:54:52 10° N 05:57:59 30° ENE 06:01:05 10° SE
Cosmos 1484 Rocket 2.3 05:57:09 10° N 06:00:33 65° WNW 06:03:55 10° SSW
Cosmos 2058 Rocket 3.3 05:56:18 10° NNW 06:00:34 49° W 06:04:49 10° SSW
Cosmos 1627 Rocket 4.5 05:57:40 10° SSW 06:03:41 59° WNW 06:09:46 10° N
Meteor 2-2 Rocket 4.3 05:58:16 10° NNW 06:03:48 55° W 06:09:24 10° S
Okean 1 3.3 06:03:39 15° NNW 06:06:21 45° W 06:09:46 10° SSW
Cosmos 1346 Rocket 4.3 06:07:59 17° NW 06:07:59 17° NW 06:09:27 10° NNW
Meteor 2-20 Rocket 4.4 06:01:20 10° NNW 06:06:59 56° W 06:12:33 10° S
Cosmos 220 Rocket 4.5 06:05:31 10° WSW 06:09:14 33° NW 06:13:01 10° N
SL-16 R/B 4.4 06:08:17 10° N 06:10:45 13° NNE 06:13:13 10° NE
ARIANE 5 R/B 3.5 06:07:31 10° NNE 06:12:37 52° E 06:17:41 10° S
Cosmos 2285 Rocket 4.0 06:06:44 10° NNW 06:13:06 75° WSW 06:19:29 10° SSE
ATLAS 2AS CENTAUR R/B 4.4 06:09:24 10° S 06:15:45 37° ESE 06:21:57 10° NE
SL-08 ROCKET BODY 4.4 06:11:13 10° S 06:17:04 88° E 06:22:58 10° N
SL-08 R/B 4.2 06:14:13 10° SE 06:18:38 48° ENE 06:23:08 10° N
IRIDIUM 104 4.3 06:13:42 10° S 06:18:55 74° W 06:24:10 10° N
Cosmos 2333 Rocket 2.7 06:15:59 12° NW 06:20:51 42° WSW 06:26:12 10° S
SAR-Lupe-4 4.1 06:19:24 10° NNE 06:22:57 62° ESE 06:26:28 10° S
SMAP 3.1 06:19:12 10° NNE 06:23:54 88° ESE 06:28:34 10° SSW
Cosmos 2360 Rocket 2.4 06:22:00 10° NW 06:27:28 52° WSW 06:32:52 10° S
IRIDIUM 114 4.3 06:22:55 10° SSW 06:28:04 62° W 06:33:17 10° N
Helios 1A Rocket 4.5 06:28:24 10° WSW 06:29:20 11° W 06:29:20 11° W
Meteor 1-19 Rocket 4.4 06:24:03 10° NNW 06:29:49 83° ENE 06:35:44 10° SSE
Landsat 7 3.9 06:25:10 10° NNE 06:29:51 83° ESE 06:34:31 10° SSW
NOSS 3-1 (A) 4.4 06:25:10 12° NW 06:31:38 49° WSW 06:40:00 10° SSE
CBERS-1 4.1 06:27:31 10° N 06:32:32 57° WNW 06:37:30 10° SW
Cosmos 2026 Rocket 4.4 06:27:51 10° SW 06:33:22 36° WNW 06:38:59 10° N
IGS 5A 3.8 06:29:39 10° N 06:33:24 39° WNW 06:37:07 10° SW
Cosmos 1814 Rocket 4.0 06:29:36 10° SSW 06:34:50 77° WNW 06:40:10 10° NNE
BREEZE-M DEB (TANK) 3.6 06:34:39 10° WSW 06:36:07 20° SSW 06:38:08 10° SE
SeaSat 1 4.4 06:35:14 10° NNW 06:36:10 11° NNW 06:37:07 10° NW
Cosmos 2237 Rocket 3.7 06:31:22 10° NNW 06:36:14 29° NE 06:41:04 10° ESE
IRIDIUM 103 4.5 06:32:12 10° SSW 06:37:17 52° W 06:42:25 10° N
USA 234 3.4 06:31:48 10° ESE 06:38:19 73° NNE 06:44:53 10° WNW
SL-4 R/B 1.9 06:36:58 11° W 06:39:54 49° SSW 06:42:58 10° SE
Cosmos 1758 Rocket 3.6 06:36:48 10° SSW 06:41:09 57° WNW 06:45:30 10° N
IRS-1C 4.3 06:36:27 10° NNE 06:41:49 83° ESE 06:47:09 10° SSW
Cosmos 1733 2.5 06:40:22 10° SW 06:41:56 23° WNW 06:43:31 10° NNW
Cosmos 1743 2.2 06:38:58 10° SSW 06:42:11 63° WNW 06:45:26 10° N
Thor Agena Rocket 3.5 06:40:01 10° N 06:45:03 63° WNW 06:50:01 10° SSW
BREEZE-M DEB (TANK) 3.5 06:43:12 10° WSW 06:46:06 73° S 06:54:25 10° E
Cosmos 2219 Rocket 2.3 06:40:47 10° NW 06:46:22 61° WSW 06:51:53 10° SSE
Cosmos 192 4.4 06:41:47 10° NNW 06:46:41 67° WSW 06:51:32 10° SSE
ATLAS 5 CENTAUR R/B 3.1 06:45:56 10° NNW 06:47:39 13° N 06:49:29 10° NNE
Cosmos 2322 Rocket 3.0 06:44:12 10° NW 06:49:15 33° WSW 06:54:16 10° SSW
S3M 4.0 06:43:42 10° NNW 06:49:56 77° W 06:56:03 10° S
USA 229 4.2 06:47:54 10° NW 06:55:10 74° NE 07:03:14 10° SE
Cosmos 2322 3.9 06:49:33 10° NNW 06:55:14 75° ENE 07:00:54 10° SE
USA 229 DEB 4.2 06:47:59 10° NW 06:55:15 74° NE 07:03:19 10° SE
SJ-12 3.8 06:53:30 10° N 06:57:14 56° WNW 07:00:58 10° SSW
Resurs 01 Rocket 4.2 06:55:32 10° NE 06:59:07 24° E 07:02:40 10° SSE
SKYMED 3 4.4 06:55:08 10° S 06:59:08 69° WSW 07:03:09 10° NNW
YAOGAN 1 3.6 06:56:01 10° NNE 07:00:13 51° E 07:04:21 10° S
